Weather History for Mobile, AL

Change the Weather History Date:

Monday, July 2, 2012

  Actual Average Record
Temperature  
Mean Temperature 84 °F 82 °F  
Max Temperature 94 °F 91 °F 101 °F (2009)
Min Temperature 74 °F 72 °F 64 °F (1924)
Cooling Degree Days 19 16  
Month to date cooling degree days 38 32  
Year to date cooling degree days 1195 921  
Since 1 June cooling degree days 489 476  
Growing Degree Days 34 (Base 50)    
Moisture  
Dew Point 73 °F    
Average Humidity 73    
Maximum Humidity 94    
Minimum Humidity 52    
Precipitation  
Precipitation T in 0.23 in 3.26 in (1951)
Month to date precipitation T 0.45  
Year to date precipitation 40.01 33.40  
Sea Level Pressure  
Sea Level Pressure 30.06 in    
Wind  
Wind Speed 3 mph (NW)    
Max Wind Speed 23 mph    
Max Gust Speed 29 mph    
Visibility 9 miles    
Events Rain , Thunderstorm    
T = Trace of Precipitation, MM = Missing Value Source: NWS Daily Summary

Daily Weather History Graph

Daily Weather History Graph

Search for Another Location

Airport:

Trip Planner

Search our weather history database for the weather conditions in past years. The results will help you decide how hot, cold, wet, or windy it might be!

Date:

Astronomy

Jul. 02, 2012 Rise Set
Actual Time 5:54 AM CDT 7:59 PM CDT
Civil Twilight 5:26 AM CDT 8:27 PM CDT
Nautical Twilight 4:53 AM CDT 9:00 PM CDT
Astronomical Twilight 4:17 AM CDT 9:36 PM CDT
Moon 7:04 PM CDT (7/2) 4:39 AM CDT (7/2)
Length of Visible Light 15h 00m
Length of Day
14h 05m
Waxing Gibbous, 98% of the Moon is Illuminated
Jul 2
Waxing Gibbous
Jul 3
Full
Jul 10
Last Quarter
Jul 18
New
Jul 26
First Quarter

Hourly Weather History & Observations

Time (CDT) Temp. Heat Index Dew Point Humidity Pressure Visibility Wind Dir Wind Speed Gust Speed Precip Events Conditions
12:56 AM 80.1 °F 85.1 °F 75.0 °F 85% 30.01 in 10.0 mi WSW 3.5 mph - N/A   Partly Cloudy
1:56 AM 79.0 °F - 73.9 °F 84% 30.02 in 10.0 mi WSW 3.5 mph - N/A   Scattered Clouds
2:56 AM 79.0 °F - 73.9 °F 84% 30.02 in 10.0 mi SW 3.5 mph - N/A   Mostly Cloudy
3:56 AM 78.1 °F - 73.9 °F 87% 30.02 in 10.0 mi Calm Calm - N/A   Mostly Cloudy
4:56 AM 75.9 °F - 73.0 °F 91% 30.03 in 10.0 mi West 3.5 mph - N/A   Mostly Cloudy
5:56 AM 75.9 °F - 73.0 °F 91% 30.05 in 10.0 mi Calm Calm - N/A   Scattered Clouds
6:56 AM 77.0 °F - 73.0 °F 88% 30.09 in 10.0 mi Calm Calm - N/A   Mostly Cloudy
7:56 AM 81.0 °F 85.8 °F 73.0 °F 77% 30.12 in 10.0 mi ESE 3.5 mph - N/A   Mostly Cloudy
8:56 AM 82.9 °F 90.2 °F 75.0 °F 77% 30.10 in 10.0 mi SE 9.2 mph - N/A   Mostly Cloudy
9:56 AM 84.0 °F 91.9 °F 75.0 °F 74% 30.10 in 10.0 mi Calm Calm - N/A   Mostly Cloudy
10:56 AM 87.1 °F 96.3 °F 75.0 °F 67% 30.10 in 10.0 mi NW 5.8 mph - N/A   Mostly Cloudy
11:15 AM 87.8 °F 97.6 °F 75.2 °F 66% 30.11 in 10.0 mi North 5.8 mph - N/A   Mostly Cloudy
11:56 AM 88.0 °F 97.5 °F 75.0 °F 65% 30.09 in 10.0 mi Calm Calm - N/A   Mostly Cloudy
12:03 PM 87.8 °F 97.6 °F 75.2 °F 66% 30.10 in 10.0 mi WNW 3.5 mph - N/A   Mostly Cloudy
12:09 PM 87.8 °F 97.6 °F 75.2 °F 66% 30.10 in 10.0 mi West 3.5 mph - N/A Thunderstorm Thunderstorm
12:23 PM 87.8 °F 97.6 °F 75.2 °F 66% 30.10 in 8.0 mi SSW 5.8 mph - N/A Thunderstorm Thunderstorm
12:36 PM 84.2 °F 90.9 °F 73.4 °F 70% 30.10 in 10.0 mi ESE 3.5 mph - N/A   Mostly Cloudy
12:40 PM 84.2 °F 90.9 °F 73.4 °F 70% 30.10 in 10.0 mi East 3.5 mph - N/A Thunderstorm Thunderstorm
12:50 PM 82.4 °F 89.5 °F 75.2 °F 79% 30.09 in 9.0 mi ENE 4.6 mph - 0.00 in Rain , Thunderstorm Light Thunderstorms and Rain
12:56 PM 84.0 °F 91.9 °F 75.0 °F 74% 30.08 in 10.0 mi SSE 3.5 mph - 0.00 in Rain Light Rain
1:56 PM 91.9 °F 103.2 °F 75.0 °F 58% 30.06 in 10.0 mi NE 6.9 mph - 0.00 in   Mostly Cloudy
2:56 PM 91.9 °F 98.4 °F 71.1 °F 50% 30.04 in 10.0 mi North 6.9 mph - N/A   Mostly Cloudy
3:56 PM 91.0 °F 97.6 °F 71.1 °F 52% 30.04 in 10.0 mi NE 8.1 mph - N/A   Overcast
4:19 PM 89.6 °F 96.2 °F 71.6 °F 55% 30.05 in 7.0 mi NE 5.8 mph - N/A Thunderstorm Thunderstorm
4:56 PM 80.1 °F 82.9 °F 69.1 °F 69% 30.05 in 7.0 mi SE 15.0 mph 27.6 mph N/A Thunderstorm Thunderstorm
5:33 PM 77.0 °F - 69.8 °F 78% 30.04 in 7.0 mi Calm Calm - N/A   Overcast
5:56 PM 78.1 °F - 70.0 °F 76% 30.01 in 7.0 mi Calm Calm - N/A   Overcast
6:56 PM 79.0 °F - 71.1 °F 77% 30.00 in 10.0 mi NNW 3.5 mph - N/A   Overcast
7:56 PM 80.1 °F 83.6 °F 71.1 °F 74% 30.01 in 10.0 mi Calm Calm - N/A   Overcast
8:56 PM 75.9 °F - 72.0 °F 87% 30.04 in 10.0 mi West 3.5 mph - N/A   Scattered Clouds
9:56 PM 75.0 °F - 72.0 °F 90% 30.04 in 8.0 mi Calm Calm - N/A   Scattered Clouds
10:56 PM 77.0 °F - 72.0 °F 84% 30.05 in 9.0 mi Calm Calm - N/A   Scattered Clouds
11:56 PM 73.9 °F - 71.1 °F 91% 30.06 in 7.0 mi WNW 4.6 mph - N/A   Scattered Clouds